Time,TemperatureF,DewpointF,PressureIn,WindDirection,WindDirectionDegrees,WindSpeedMPH,WindSpeedGustMPH,Humidity,HourlyPrecipIn,Conditions,Clouds,dailyrainin,SoftwareType,DateUTC
2013-05-29 00:04:00,52.5,48.7,29.76,SW,224,1.0,3.0,87,0.00,,,0.00,Wunderground v.1.15,2013-05-29 07:04:00,
2013-05-29 00:10:00,52.6,48.5,29.75,WNW,283,1.0,1.0,86,0.00,,,0.00,Wunderground v.1.15,2013-05-29 07:10:00,
2013-05-29 00:15:00,52.6,48.2,29.75,SW,221,1.0,1.0,85,0.00,,,0.00,Wunderground v.1.15,2013-05-29 07:15:00,
2013-05-29 00:21:00,52.5,48.1,29.75,SSE,162,0.0,0.0,85,0.00,,,0.00,Wunderground v.1.15,2013-05-29 07:21:00,
2013-05-29 00:26:00,52.4,47.7,29.74,SSE,162,0.0,0.0,84,0.00,,,0.00,Wunderground v.1.15,2013-05-29 07:26:00,
2013-05-29 00:33:00,52.3,47.9,29.74,SSE,162,0.0,0.0,85,0.00,,,0.00,Wunderground v.1.15,2013-05-29 07:33:00,
2013-05-29 00:39:00,52.1,47.7,29.74,East,80,0.0,0.0,85,0.00,,,0.00,Wunderground v.1.15,2013-05-29 07:39:00,
2013-05-29 00:45:00,51.9,47.8,29.75,SSE,150,0.0,1.0,86,0.00,,,0.00,Wunderground v.1.15,2013-05-29 07:45:00,
2013-05-29 00:50:00,51.8,47.4,29.74,SW,216,0.0,0.0,85,0.00,,,0.00,Wunderground v.1.15,2013-05-29 07:50:00,
2013-05-29 00:56:00,51.8,47.7,29.74,SE,138,0.0,1.0,86,0.00,,,0.00,Wunderground v.1.15,2013-05-29 07:56:00,
2013-05-29 01:02:00,51.8,47.4,29.73,SW,236,0.0,1.0,85,0.00,,,0.00,Wunderground v.1.15,2013-05-29 08:02:00,
2013-05-29 01:07:00,51.9,47.5,29.73,WSW,238,0.0,1.0,85,0.00,,,0.00,Wunderground v.1.15,2013-05-29 08:07:00,
2013-05-29 01:13:00,51.9,47.5,29.73,SW,231,0.0,1.0,85,0.00,,,0.00,Wunderground v.1.15,2013-05-29 08:13:00,
2013-05-29 01:18:00,51.9,47.8,29.73,SSW,205,0.0,2.0,86,0.00,,,0.00,Wunderground v.1.15,2013-05-29 08:18:00,
2013-05-29 01:24:00,51.9,48.2,29.73,West,266,1.0,3.0,87,0.00,,,0.00,Wunderground v.1.15,2013-05-29 08:24:00,
2013-05-29 01:29:00,51.9,48.2,29.73,WSW,241,1.0,3.0,87,0.00,,,0.00,Wunderground v.1.15,2013-05-29 08:29:00,
2013-05-29 01:35:00,51.8,48.1,29.73,SSE,158,0.0,1.0,87,0.00,,,0.00,Wunderground v.1.15,2013-05-29 08:35:00,
2013-05-29 01:41:00,51.8,48.1,29.72,SW,218,0.0,0.0,87,0.00,,,0.00,Wunderground v.1.15,2013-05-29 08:41:00,
2013-05-29 01:47:00,51.8,48.1,29.72,SW,217,0.0,1.0,87,0.00,,,0.00,Wunderground v.1.15,2013-05-29 08:47:00,
2013-05-29 01:52:00,51.8,48.1,29.72,WSW,257,0.0,0.0,87,0.00,,,0.00,Wunderground v.1.15,2013-05-29 08:52:00,
2013-05-29 01:58:00,51.8,48.1,29.72,WSW,250,1.0,1.0,87,0.00,,,0.00,Wunderground v.1.15,2013-05-29 08:58:00,
2013-05-29 02:04:00,51.9,47.8,29.71,WSW,253,0.0,0.0,86,0.00,,,0.00,Wunderground v.1.15,2013-05-29 09:04:00,
2013-05-29 02:09:00,51.9,48.2,29.71,WSW,253,0.0,1.0,87,0.00,,,0.00,Wunderground v.1.15,2013-05-29 09:09:00,
2013-05-29 02:15:00,51.8,48.1,29.70,WSW,253,0.0,0.0,87,0.00,,,0.00,Wunderground v.1.15,2013-05-29 09:15:00,
2013-05-29 02:20:00,51.7,48.0,29.70,WSW,252,0.0,0.0,87,0.00,,,0.00,Wunderground v.1.15,2013-05-29 09:20:00,
2013-05-29 02:26:00,51.5,47.8,29.70,WSW,253,0.0,1.0,87,0.00,,,0.00,Wunderground v.1.15,2013-05-29 09:26:00,
2013-05-29 02:32:00,51.4,47.7,29.70,West,281,0.0,1.0,87,0.00,,,0.00,Wunderground v.1.15,2013-05-29 09:32:00,
2013-05-29 02:38:00,51.4,47.7,29.69,West,281,1.0,1.0,87,0.00,,,0.00,Wunderground v.1.15,2013-05-29 09:38:00,
2013-05-29 02:43:00,51.4,48.0,29.70,West,281,1.0,1.0,88,0.00,,,0.00,Wunderground v.1.15,2013-05-29 09:43:00,
2013-05-29 02:49:00,51.4,48.0,29.69,West,281,0.0,1.0,88,0.00,,,0.00,Wunderground v.1.15,2013-05-29 09:49:00,
2013-05-29 02:54:00,51.4,48.0,29.69,WNW,282,0.0,1.0,88,0.00,,,0.00,Wunderground v.1.15,2013-05-29 09:54:00,
2013-05-29 03:00:00,51.4,48.0,29.69,West,281,0.0,0.0,88,0.00,,,0.00,Wunderground v.1.15,2013-05-29 10:00:00,
2013-05-29 03:05:00,51.4,48.0,29.69,West,260,0.0,2.0,88,0.00,,,0.00,Wunderground v.1.15,2013-05-29 10:05:00,
2013-05-29 03:11:00,51.4,48.0,29.69,West,270,0.0,0.0,88,0.00,,,0.00,Wunderground v.1.15,2013-05-29 10:11:00,
2013-05-29 03:17:00,51.5,47.8,29.69,West,270,0.0,0.0,87,0.00,,,0.00,Wunderground v.1.15,2013-05-29 10:17:00,
2013-05-29 03:22:00,51.5,47.8,29.69,West,270,0.0,0.0,87,0.00,,,0.00,Wunderground v.1.15,2013-05-29 10:22:00,
2013-05-29 03:28:00,51.5,48.1,29.70,WSW,247,0.0,1.0,88,0.00,,,0.00,Wunderground v.1.15,2013-05-29 10:28:00,
2013-05-29 03:33:00,51.5,48.1,29.70,WSW,246,0.0,0.0,88,0.00,,,0.00,Wunderground v.1.15,2013-05-29 10:33:00,
2013-05-29 03:38:00,51.4,48.0,29.70,West,260,0.0,1.0,88,0.00,,,0.00,Wunderground v.1.15,2013-05-29 10:38:00,
2013-05-29 03:44:00,51.3,48.2,29.70,SW,219,0.0,1.0,89,0.00,,,0.00,Wunderground v.1.15,2013-05-29 10:44:00,
2013-05-29 03:49:00,51.1,48.0,29.70,SE,143,0.0,1.0,89,0.00,,,0.00,Wunderground v.1.15,2013-05-29 10:49:00,
2013-05-29 03:55:00,50.9,48.4,29.70,SE,141,0.0,1.0,91,0.00,,,0.01,Wunderground v.1.15,2013-05-29 10:55:00,
2013-05-29 04:00:00,50.7,48.2,29.70,SE,141,0.0,0.0,91,0.10,,,0.02,Wunderground v.1.15,2013-05-29 11:00:00,
2013-05-29 04:06:00,50.5,48.3,29.70,SE,141,0.0,1.0,92,0.10,,,0.03,Wunderground v.1.15,2013-05-29 11:06:00,
2013-05-29 04:12:00,50.4,48.5,29.70,SE,141,0.0,0.0,93,0.09,,,0.04,Wunderground v.1.15,2013-05-29 11:12:00,
2013-05-29 04:17:00,50.3,48.4,29.69,NNE,13,0.0,1.0,93,0.11,,,0.05,Wunderground v.1.15,2013-05-29 11:17:00,
2013-05-29 04:23:00,50.2,48.5,29.69,East,97,1.0,1.0,94,0.30,,,0.07,Wunderground v.1.15,2013-05-29 11:23:00,
2013-05-29 04:29:00,50.0,48.3,29.69,NNE,31,1.0,2.0,94,0.11,,,0.08,Wunderground v.1.15,2013-05-29 11:29:00,
2013-05-29 04:34:00,50.0,48.6,29.69,SW,223,1.0,1.0,95,0.08,,,0.09,Wunderground v.1.15,2013-05-29 11:34:00,
2013-05-29 04:40:00,50.0,48.6,29.69,West,274,0.0,0.0,95,0.08,,,0.09,Wunderground v.1.15,2013-05-29 11:40:00,
2013-05-29 04:46:00,49.9,48.5,29.69,West,274,0.0,0.0,95,0.07,,,0.10,Wunderground v.1.15,2013-05-29 11:46:00,
2013-05-29 04:51:00,49.8,48.4,29.69,West,274,0.0,0.0,95,0.06,,,0.10,Wunderground v.1.15,2013-05-29 11:51:00,
2013-05-29 04:57:00,49.7,48.3,29.69,West,273,0.0,0.0,95,0.04,,,0.10,Wunderground v.1.15,2013-05-29 11:57:00,
2013-05-29 05:02:00,49.7,48.3,29.69,WSW,245,0.0,1.0,95,0.04,,,0.11,Wunderground v.1.15,2013-05-29 12:02:00,
2013-05-29 05:08:00,49.7,48.6,29.69,WSW,245,0.0,1.0,96,0.04,,,0.11,Wunderground v.1.15,2013-05-29 12:08:00,
2013-05-29 05:14:00,49.7,48.6,29.69,WSW,245,0.0,1.0,96,0.05,,,0.12,Wunderground v.1.15,2013-05-29 12:14:00,
2013-05-29 05:20:00,49.6,48.5,29.69,WSW,245,0.0,0.0,96,0.05,,,0.12,Wunderground v.1.15,2013-05-29 12:20:00,
2013-05-29 05:26:00,49.6,48.5,29.69,WSW,245,0.0,0.0,96,0.04,,,0.13,Wunderground v.1.15,2013-05-29 12:26:00,
2013-05-29 05:31:00,49.5,48.4,29.69,SSW,203,0.0,0.0,96,0.04,,,0.13,Wunderground v.1.15,2013-05-29 12:31:00,
2013-05-29 05:37:00,49.5,48.4,29.69,SSW,203,0.0,0.0,96,0.05,,,0.14,Wunderground v.1.15,2013-05-29 12:37:00,
2013-05-29 05:42:00,49.5,48.4,29.69,SSE,161,0.0,1.0,96,0.05,,,0.14,Wunderground v.1.15,2013-05-29 12:42:00,
2013-05-29 05:48:00,49.5,48.4,29.69,SSE,161,0.0,1.0,96,0.06,,,0.15,Wunderground v.1.15,2013-05-29 12:48:00,
2013-05-29 05:54:00,49.5,48.4,29.69,SSE,161,0.0,0.0,96,0.08,,,0.16,Wunderground v.1.15,2013-05-29 12:54:00,
2013-05-29 05:59:00,49.5,48.4,29.69,SSE,161,0.0,0.0,96,0.08,,,0.16,Wunderground v.1.15,2013-05-29 12:59:00,
2013-05-29 06:05:00,49.6,48.8,29.69,SSE,161,0.0,0.0,97,0.05,,,0.17,Wunderground v.1.15,2013-05-29 13:05:00,
2013-05-29 06:11:00,49.6,48.5,29.69,SSE,161,0.0,0.0,96,0.05,,,0.17,Wunderground v.1.15,2013-05-29 13:11:00,
2013-05-29 06:16:00,49.5,48.4,29.69,SSE,161,0.0,0.0,96,0.06,,,0.18,Wunderground v.1.15,2013-05-29 13:16:00,
2013-05-29 06:22:00,49.6,48.5,29.69,SSE,161,0.0,0.0,96,0.06,,,0.18,Wunderground v.1.15,2013-05-29 13:22:00,
2013-05-29 06:27:00,49.6,48.5,29.69,SSE,161,0.0,0.0,96,0.05,,,0.18,Wunderground v.1.15,2013-05-29 13:27:00,
2013-05-29 06:33:00,49.6,48.5,29.69,SE,132,0.0,1.0,96,0.00,,,0.18,Wunderground v.1.15,2013-05-29 13:33:00,
2013-05-29 06:39:00,49.7,48.9,29.69,SE,132,0.0,1.0,97,0.00,,,0.19,Wunderground v.1.15,2013-05-29 13:39:00,
2013-05-29 06:44:00,49.7,48.6,29.69,SE,132,0.0,0.0,96,0.00,,,0.19,Wunderground v.1.15,2013-05-29 13:44:00,
2013-05-29 06:50:00,49.7,48.6,29.68,ENE,68,0.0,1.0,96,0.00,,,0.19,Wunderground v.1.15,2013-05-29 13:50:00,
2013-05-29 06:56:00,49.7,48.9,29.68,ENE,57,1.0,1.0,97,0.00,,,0.19,Wunderground v.1.15,2013-05-29 13:56:00,
2013-05-29 07:01:00,49.7,48.6,29.68,NE,54,1.0,2.0,96,0.00,,,0.19,Wunderground v.1.15,2013-05-29 14:01:00,
2013-05-29 07:07:00,49.9,49.1,29.68,NE,37,2.0,3.0,97,0.00,,,0.19,Wunderground v.1.15,2013-05-29 14:07:00,
2013-05-29 07:12:00,50.0,48.9,29.68,ENE,67,1.0,2.0,96,0.00,,,0.19,Wunderground v.1.15,2013-05-29 14:12:00,
2013-05-29 07:18:00,50.1,49.3,29.69,ENE,73,1.0,2.0,97,0.00,,,0.19,Wunderground v.1.15,2013-05-29 14:18:00,
2013-05-29 07:23:00,50.2,49.4,29.69,East,80,0.0,1.0,97,0.00,,,0.19,Wunderground v.1.15,2013-05-29 14:23:00,
2013-05-29 07:29:00,50.4,49.3,29.69,ENE,72,1.0,2.0,96,0.00,,,0.19,Wunderground v.1.15,2013-05-29 14:29:00,
2013-05-29 07:35:00,50.5,49.4,29.69,ENE,68,1.0,2.0,96,0.00,,,0.19,Wunderground v.1.15,2013-05-29 14:35:00,
2013-05-29 07:40:00,50.7,49.6,29.69,ENE,68,1.0,1.0,96,0.00,,,0.19,Wunderground v.1.15,2013-05-29 14:40:00,
2013-05-29 07:46:00,50.9,49.8,29.69,ENE,66,1.0,1.0,96,0.00,,,0.19,Wunderground v.1.15,2013-05-29 14:46:00,
2013-05-29 07:51:00,51.0,49.6,29.69,ENE,67,0.0,0.0,95,0.00,,,0.19,Wunderground v.1.15,2013-05-29 14:51:00,
2013-05-29 07:57:00,51.2,49.5,29.69,East,79,0.0,1.0,94,0.00,,,0.19,Wunderground v.1.15,2013-05-29 14:57:00,
2013-05-29 08:02:00,51.5,50.1,29.69,East,101,0.0,1.0,95,0.00,,,0.19,Wunderground v.1.15,2013-05-29 15:02:00,
2013-05-29 08:08:00,51.6,49.6,29.70,East,101,0.0,1.0,93,0.00,,,0.19,Wunderground v.1.15,2013-05-29 15:08:00,
2013-05-29 08:13:00,52.0,50.0,29.70,SE,138,0.0,1.0,93,0.00,,,0.19,Wunderground v.1.15,2013-05-29 15:13:00,
2013-05-29 08:19:00,52.4,50.4,29.70,SE,141,1.0,1.0,93,0.00,,,0.19,Wunderground v.1.15,2013-05-29 15:19:00,
2013-05-29 08:24:00,52.4,49.8,29.70,SE,142,1.0,2.0,91,0.00,,,0.19,Wunderground v.1.15,2013-05-29 15:24:00,
2013-05-29 08:30:00,52.1,49.8,29.70,SSE,158,2.0,2.0,92,0.00,,,0.19,Wunderground v.1.15,2013-05-29 15:30:00,
2013-05-29 08:35:00,52.1,50.1,29.70,SE,131,2.0,2.0,93,0.00,,,0.19,Wunderground v.1.15,2013-05-29 15:35:00,
2013-05-29 08:41:00,52.2,49.7,29.70,SE,143,2.0,2.0,91,0.00,,,0.19,Wunderground v.1.15,2013-05-29 15:41:00,
2013-05-29 08:46:00,52.1,49.8,29.70,SSE,150,1.0,2.0,92,0.00,,,0.19,Wunderground v.1.15,2013-05-29 15:46:00,
2013-05-29 08:52:00,52.2,49.7,29.70,SSE,150,2.0,2.0,91,0.00,,,0.19,Wunderground v.1.15,2013-05-29 15:52:00,
2013-05-29 08:57:00,52.1,49.8,29.70,SSE,152,2.0,2.0,92,0.00,,,0.19,Wunderground v.1.15,2013-05-29 15:57:00,
2013-05-29 09:03:00,52.1,49.8,29.70,SE,137,2.0,2.0,92,0.00,,,0.19,Wunderground v.1.15,2013-05-29 16:03:00,
2013-05-29 09:08:00,52.2,50.2,29.70,SSE,149,1.0,2.0,93,0.00,,,0.19,Wunderground v.1.15,2013-05-29 16:08:00,
2013-05-29 09:14:00,52.6,50.6,29.71,SSE,148,0.0,0.0,93,0.00,,,0.19,Wunderground v.1.15,2013-05-29 16:14:00,
2013-05-29 09:20:00,52.9,50.0,29.70,SSE,148,0.0,0.0,90,0.00,,,0.19,Wunderground v.1.15,2013-05-29 16:20:00,
2013-05-29 09:25:00,53.1,50.2,29.71,NNE,32,0.0,2.0,90,0.00,,,0.19,Wunderground v.1.15,2013-05-29 16:25:00,
2013-05-29 09:31:00,53.0,49.8,29.71,East,90,1.0,2.0,89,0.00,,,0.19,Wunderground v.1.15,2013-05-29 16:31:00,
2013-05-29 09:36:00,52.8,49.9,29.71,East,86,1.0,2.0,90,0.00,,,0.19,Wunderground v.1.15,2013-05-29 16:36:00,
2013-05-29 09:42:00,53.0,50.4,29.71,SE,126,1.0,1.0,91,0.00,,,0.19,Wunderground v.1.15,2013-05-29 16:42:00,
2013-05-29 09:48:00,53.1,49.9,29.72,East,96,1.0,1.0,89,0.00,,,0.19,Wunderground v.1.15,2013-05-29 16:48:00,
2013-05-29 09:53:00,53.1,49.9,29.72,ESE,112,0.0,1.0,89,0.00,,,0.19,Wunderground v.1.15,2013-05-29 16:53:00,
2013-05-29 09:59:00,53.1,50.5,29.72,ESE,105,0.0,1.0,91,0.00,,,0.19,Wunderground v.1.15,2013-05-29 16:59:00,
2013-05-29 10:05:00,53.0,50.1,29.72,SSE,158,1.0,1.0,90,0.00,,,0.19,Wunderground v.1.15,2013-05-29 17:05:00,
2013-05-29 10:10:00,53.0,50.1,29.73,SSE,150,1.0,2.0,90,0.00,,,0.19,Wunderground v.1.15,2013-05-29 17:10:00,
2013-05-29 10:16:00,53.0,50.1,29.73,SE,141,1.0,2.0,90,0.00,,,0.19,Wunderground v.1.15,2013-05-29 17:16:00,
2013-05-29 10:21:00,52.9,50.0,29.73,SSE,149,2.0,2.0,90,0.00,,,0.19,Wunderground v.1.15,2013-05-29 17:21:00,
2013-05-29 10:27:00,52.8,49.6,29.73,SSE,163,2.0,2.0,89,0.00,,,0.19,Wunderground v.1.15,2013-05-29 17:27:00,
2013-05-29 10:32:00,52.9,50.9,29.73,SSE,148,2.0,2.0,93,0.00,,,0.19,Wunderground v.1.15,2013-05-29 17:32:00,
2013-05-29 10:38:00,52.8,50.8,29.74,SSE,160,2.0,3.0,93,0.00,,,0.19,Wunderground v.1.15,2013-05-29 17:38:00,
2013-05-29 10:43:00,52.7,51.0,29.74,SSE,156,2.0,2.0,94,0.00,,,0.19,Wunderground v.1.15,2013-05-29 17:43:00,
2013-05-29 10:49:00,52.5,50.8,29.74,SE,146,2.0,2.0,94,0.00,,,0.19,Wunderground v.1.15,2013-05-29 17:49:00,
2013-05-29 10:55:00,52.5,50.8,29.74,SSE,153,2.0,3.0,94,0.00,,,0.19,Wunderground v.1.15,2013-05-29 17:55:00,
2013-05-29 11:01:00,52.6,51.2,29.74,SSE,164,2.0,2.0,95,0.00,,,0.19,Wunderground v.1.15,2013-05-29 18:01:00,
2013-05-29 11:06:00,52.8,51.4,29.75,SSE,156,2.0,4.0,95,0.00,,,0.19,Wunderground v.1.15,2013-05-29 18:06:00,
2013-05-29 11:12:00,53.0,51.3,29.75,SSE,150,3.0,3.0,94,0.00,,,0.19,Wunderground v.1.15,2013-05-29 18:12:00,
2013-05-29 11:18:00,53.4,50.8,29.75,SSE,149,3.0,3.0,91,0.00,,,0.19,Wunderground v.1.15,2013-05-29 18:18:00,
2013-05-29 11:24:00,53.9,50.7,29.75,SE,127,2.0,3.0,89,0.00,,,0.19,Wunderground v.1.15,2013-05-29 18:24:00,
2013-05-29 11:30:00,54.3,50.2,29.75,SSE,164,2.0,4.0,86,0.00,,,0.19,Wunderground v.1.15,2013-05-29 18:30:00,
2013-05-29 11:35:00,54.6,51.1,29.75,SSE,160,4.0,6.0,88,0.00,,,0.19,Wunderground v.1.15,2013-05-29 18:35:00,
2013-05-29 11:41:00,54.7,51.8,29.75,SSE,158,5.0,5.0,90,0.00,,,0.19,Wunderground v.1.15,2013-05-29 18:41:00,
2013-05-29 11:46:00,54.9,51.7,29.76,SSE,149,4.0,5.0,89,0.00,,,0.19,Wunderground v.1.15,2013-05-29 18:46:00,
2013-05-29 11:52:00,54.6,50.5,29.76,SSE,153,4.0,4.0,86,0.00,,,0.19,Wunderground v.1.15,2013-05-29 18:52:00,
2013-05-29 11:58:00,54.6,50.5,29.76,SE,138,4.0,5.0,86,0.00,,,0.19,Wunderground v.1.15,2013-05-29 18:58:00,
2013-05-29 12:04:00,54.8,50.4,29.76,SE,128,4.0,4.0,85,0.00,,,0.19,Wunderground v.1.15,2013-05-29 19:04:00,
2013-05-29 12:10:00,54.8,50.4,29.76,SE,134,4.0,6.0,85,0.00,,,0.19,Wunderground v.1.15,2013-05-29 19:10:00,
2013-05-29 12:15:00,54.5,49.8,29.77,SE,139,4.0,6.0,84,0.00,,,0.19,Wunderground v.1.15,2013-05-29 19:15:00,
2013-05-29 12:21:00,54.2,49.8,29.77,SSE,153,3.0,4.0,85,0.00,,,0.19,Wunderground v.1.15,2013-05-29 19:21:00,
2013-05-29 12:26:00,53.9,49.8,29.77,South,170,3.0,4.0,86,0.00,,,0.19,Wunderground v.1.15,2013-05-29 19:26:00,
2013-05-29 12:32:00,54.0,50.8,29.78,SSW,203,2.0,2.0,89,0.00,,,0.19,Wunderground v.1.15,2013-05-29 19:32:00,
2013-05-29 12:38:00,54.2,50.7,29.78,SSE,150,2.0,6.0,88,0.00,,,0.19,Wunderground v.1.15,2013-05-29 19:38:00,
2013-05-29 12:44:00,54.1,50.3,29.77,SE,127,4.0,6.0,87,0.00,,,0.19,Wunderground v.1.15,2013-05-29 19:44:00,
2013-05-29 12:49:00,54.3,50.8,29.78,SSE,149,4.0,6.0,88,0.00,,,0.19,Wunderground v.1.15,2013-05-29 19:49:00,
2013-05-29 12:55:00,54.6,51.4,29.78,East,85,3.0,4.0,89,0.00,,,0.19,Wunderground v.1.15,2013-05-29 19:55:00,
2013-05-29 13:00:00,54.7,51.5,29.78,South,185,3.0,5.0,89,0.00,,,0.19,Wunderground v.1.15,2013-05-29 20:00:00,
2013-05-29 13:06:00,54.7,51.2,29.78,SSE,158,4.0,5.0,88,0.00,,,0.19,Wunderground v.1.15,2013-05-29 20:06:00,
2013-05-29 13:12:00,54.9,51.4,29.78,SE,131,4.0,5.0,88,0.00,,,0.19,Wunderground v.1.15,2013-05-29 20:12:00,
2013-05-29 13:17:00,55.0,51.5,29.78,SSE,159,4.0,5.0,88,0.00,,,0.19,Wunderground v.1.15,2013-05-29 20:17:00,
2013-05-29 13:23:00,55.2,52.0,29.78,SSE,155,3.0,4.0,89,0.00,,,0.19,Wunderground v.1.15,2013-05-29 20:23:00,
2013-05-29 13:28:00,55.4,51.9,29.78,SSE,153,4.0,8.0,88,0.00,,,0.19,Wunderground v.1.15,2013-05-29 20:28:00,
2013-05-29 13:34:00,55.5,52.0,29.78,SE,136,6.0,7.0,88,0.00,,,0.19,Wunderground v.1.15,2013-05-29 20:34:00,
2013-05-29 13:40:00,56.1,52.0,29.78,South,181,5.0,5.0,86,0.00,,,0.19,Wunderground v.1.15,2013-05-29 20:40:00,
2013-05-29 13:45:00,56.6,51.8,29.78,South,169,5.0,7.0,84,0.00,,,0.19,Wunderground v.1.15,2013-05-29 20:45:00,
2013-05-29 13:51:00,56.9,52.1,29.78,SSE,160,6.0,9.0,84,0.00,,,0.19,Wunderground v.1.15,2013-05-29 20:51:00,
2013-05-29 13:57:00,57.0,52.2,29.78,South,172,6.0,9.0,84,0.00,,,0.19,Wunderground v.1.15,2013-05-29 20:57:00,
2013-05-29 14:03:00,57.2,52.1,29.79,WSW,245,6.0,9.0,83,0.00,,,0.19,Wunderground v.1.15,2013-05-29 21:03:00,
2013-05-29 14:08:00,57.3,52.2,29.79,SSE,153,6.0,9.0,83,0.00,,,0.19,Wunderground v.1.15,2013-05-29 21:08:00,
2013-05-29 14:13:00,57.3,52.2,29.79,SSE,157,6.0,7.0,83,0.00,,,0.19,Wunderground v.1.15,2013-05-29 21:13:00,
2013-05-29 14:19:00,57.4,52.3,29.79,SE,142,5.0,7.0,83,0.00,,,0.19,Wunderground v.1.15,2013-05-29 21:19:00,
2013-05-29 14:25:00,57.8,52.0,29.79,SE,137,5.0,7.0,81,0.00,,,0.19,Wunderground v.1.15,2013-05-29 21:25:00,
2013-05-29 14:30:00,57.9,51.8,29.79,SE,131,6.0,6.0,80,0.00,,,0.19,Wunderground v.1.15,2013-05-29 21:30:00,
2013-05-29 14:36:00,58.2,51.7,29.79,SSE,150,5.0,6.0,79,0.00,,,0.19,Wunderground v.1.15,2013-05-29 21:36:00,
2013-05-29 14:42:00,59.0,51.4,29.79,SE,134,4.0,5.0,76,0.00,,,0.19,Wunderground v.1.15,2013-05-29 21:42:00,
2013-05-29 14:47:00,60.1,51.4,29.79,ESE,110,3.0,5.0,73,0.00,,,0.19,Wunderground v.1.15,2013-05-29 21:47:00,
2013-05-29 14:53:00,61.1,51.2,29.79,SSW,206,3.0,17.0,70,0.00,,,0.19,Wunderground v.1.15,2013-05-29 21:53:00,
2013-05-29 14:59:00,61.4,48.7,29.80,SSW,202,5.0,17.0,63,0.00,,,0.19,Wunderground v.1.15,2013-05-29 21:59:00,
2013-05-29 15:05:00,61.7,49.0,29.80,SE,141,4.0,5.0,63,0.00,,,0.19,Wunderground v.1.15,2013-05-29 22:05:00,
2013-05-29 15:10:00,61.6,48.4,29.80,SSW,207,4.0,4.0,62,0.00,,,0.19,Wunderground v.1.15,2013-05-29 22:10:00,
2013-05-29 15:16:00,61.1,48.4,29.80,SSW,200,5.0,12.0,63,0.00,,,0.19,Wunderground v.1.15,2013-05-29 22:16:00,
2013-05-29 15:21:00,60.7,48.0,29.81,SW,229,5.0,5.0,63,0.00,,,0.19,Wunderground v.1.15,2013-05-29 22:21:00,
2013-05-29 15:27:00,60.0,50.6,29.81,West,271,3.0,5.0,71,0.00,,,0.19,Wunderground v.1.15,2013-05-29 22:27:00,
2013-05-29 15:33:00,57.8,51.3,29.81,WNW,293,3.0,3.0,79,0.00,,,0.19,Wunderground v.1.15,2013-05-29 22:33:00,
2013-05-29 15:38:00,56.5,50.7,29.82,NNE,29,3.0,4.0,81,0.00,,,0.19,Wunderground v.1.15,2013-05-29 22:38:00,
2013-05-29 15:44:00,55.6,50.5,29.82,NNE,28,3.0,8.0,83,0.00,,,0.19,Wunderground v.1.15,2013-05-29 22:44:00,
2013-05-29 15:49:00,55.1,50.7,29.83,NW,324,4.0,9.0,85,0.00,,,0.19,Wunderground v.1.15,2013-05-29 22:49:00,
2013-05-29 15:55:00,54.9,50.5,29.83,North,356,5.0,6.0,85,0.00,,,0.19,Wunderground v.1.15,2013-05-29 22:55:00,
2013-05-29 16:01:00,54.8,50.4,29.83,WSW,255,4.0,6.0,85,0.00,,,0.19,Wunderground v.1.15,2013-05-29 23:01:00,
2013-05-29 16:07:00,54.7,50.6,29.83,NNW,347,4.0,10.0,86,0.00,,,0.19,Wunderground v.1.15,2013-05-29 23:07:00,
2013-05-29 16:12:00,55.1,51.0,29.84,NE,40,4.0,6.0,86,0.00,,,0.19,Wunderground v.1.15,2013-05-29 23:12:00,
2013-05-29 16:18:00,54.9,50.8,29.84,NE,44,6.0,11.0,86,0.00,,,0.19,Wunderground v.1.15,2013-05-29 23:18:00,
2013-05-29 16:24:00,54.4,50.3,29.84,NE,36,7.0,8.0,86,0.00,,,0.19,Wunderground v.1.15,2013-05-29 23:24:00,
2013-05-29 16:29:00,54.1,50.0,29.84,NE,46,7.0,11.0,86,0.00,,,0.19,Wunderground v.1.15,2013-05-29 23:29:00,
2013-05-29 16:35:00,54.0,50.2,29.84,NNE,30,6.0,7.0,87,0.00,,,0.19,Wunderground v.1.15,2013-05-29 23:35:00,
2013-05-29 16:40:00,54.0,50.5,29.85,NNE,26,5.0,9.0,88,0.00,,,0.19,Wunderground v.1.15,2013-05-29 23:40:00,
2013-05-29 16:46:00,53.7,50.5,29.85,NE,35,5.0,9.0,89,0.00,,,0.19,Wunderground v.1.15,2013-05-29 23:46:00,
2013-05-29 16:51:00,53.5,50.9,29.85,NNE,30,5.0,5.0,91,0.00,,,0.20,Wunderground v.1.15,2013-05-29 23:51:00,
2013-05-29 16:57:00,53.7,51.1,29.85,West,281,2.0,5.0,91,0.00,,,0.20,Wunderground v.1.15,2013-05-29 23:57:00,
2013-05-29 17:03:00,53.8,51.2,29.85,NNE,18,2.0,8.0,91,0.00,,,0.20,Wunderground v.1.15,2013-05-30 00:03:00,
2013-05-29 17:09:00,54.1,51.5,29.85,NW,307,3.0,8.0,91,0.00,,,0.20,Wunderground v.1.15,2013-05-30 00:09:00,
2013-05-29 17:14:00,54.2,51.0,29.86,North,353,3.0,5.0,89,0.00,,,0.20,Wunderground v.1.15,2013-05-30 00:14:00,
2013-05-29 17:20:00,54.2,51.3,29.86,NE,52,3.0,3.0,90,0.00,,,0.20,Wunderground v.1.15,2013-05-30 00:20:00,
2013-05-29 17:26:00,54.2,51.6,29.86,NE,46,2.0,5.0,91,0.00,,,0.20,Wunderground v.1.15,2013-05-30 00:26:00,
2013-05-29 17:32:00,53.9,51.0,29.86,NNE,30,3.0,4.0,90,0.00,,,0.20,Wunderground v.1.15,2013-05-30 00:32:00,
2013-05-29 17:37:00,53.8,50.9,29.87,NNE,28,3.0,4.0,90,0.00,,,0.20,Wunderground v.1.15,2013-05-30 00:37:00,
2013-05-29 17:43:00,53.8,50.9,29.87,NE,39,3.0,5.0,90,0.00,,,0.20,Wunderground v.1.15,2013-05-30 00:43:00,
2013-05-29 17:49:00,53.9,51.0,29.87,North,2,3.0,5.0,90,0.00,,,0.20,Wunderground v.1.15,2013-05-30 00:49:00,
2013-05-29 17:54:00,53.8,50.6,29.87,NE,37,3.0,6.0,89,0.00,,,0.20,Wunderground v.1.15,2013-05-30 00:54:00,
2013-05-29 18:00:00,53.8,50.6,29.87,ENE,58,3.0,3.0,89,0.00,,,0.20,Wunderground v.1.15,2013-05-30 01:00:00,
2013-05-29 18:06:00,53.8,50.6,29.87,North,6,3.0,4.0,89,0.00,,,0.20,Wunderground v.1.15,2013-05-30 01:06:00,
2013-05-29 18:11:00,53.8,50.6,29.87,NE,52,3.0,4.0,89,0.00,,,0.20,Wunderground v.1.15,2013-05-30 01:11:00,
2013-05-29 18:17:00,53.9,50.7,29.87,NNW,331,3.0,6.0,89,0.00,,,0.20,Wunderground v.1.15,2013-05-30 01:17:00,
2013-05-29 18:22:00,53.9,50.4,29.87,NNE,13,3.0,4.0,88,0.00,,,0.20,Wunderground v.1.15,2013-05-30 01:22:00,
2013-05-29 18:28:00,54.0,50.5,29.87,NNE,27,3.0,4.0,88,0.00,,,0.20,Wunderground v.1.15,2013-05-30 01:28:00,
2013-05-29 18:34:00,53.9,50.4,29.87,ENE,60,3.0,7.0,88,0.00,,,0.20,Wunderground v.1.15,2013-05-30 01:34:00,
2013-05-29 18:39:00,53.7,50.2,29.87,NNW,339,3.0,7.0,88,0.00,,,0.20,Wunderground v.1.15,2013-05-30 01:39:00,
2013-05-29 18:44:00,53.6,49.8,29.88,North,358,3.0,5.0,87,0.00,,,0.20,Wunderground v.1.15,2013-05-30 01:44:00,
2013-05-29 18:50:00,53.8,50.3,29.88,ENE,75,3.0,3.0,88,0.00,,,0.20,Wunderground v.1.15,2013-05-30 01:50:00,
2013-05-29 18:56:00,53.7,50.2,29.88,NNE,27,3.0,7.0,88,0.00,,,0.20,Wunderground v.1.15,2013-05-30 01:56:00,
2013-05-29 19:02:00,53.5,49.7,29.88,NE,51,4.0,5.0,87,0.00,,,0.20,Wunderground v.1.15,2013-05-30 02:02:00,
2013-05-29 19:07:00,53.4,49.9,29.88,NE,35,4.0,5.0,88,0.00,,,0.20,Wunderground v.1.15,2013-05-30 02:07:00,
2013-05-29 19:13:00,53.3,49.8,29.89,NNE,13,3.0,4.0,88,0.00,,,0.20,Wunderground v.1.15,2013-05-30 02:13:00,
2013-05-29 19:18:00,53.2,49.7,29.89,NNE,26,3.0,4.0,88,0.00,,,0.20,Wunderground v.1.15,2013-05-30 02:18:00,
2013-05-29 19:24:00,53.2,49.4,29.89,NNW,343,3.0,5.0,87,0.00,,,0.20,Wunderground v.1.15,2013-05-30 02:24:00,
2013-05-29 19:31:00,53.1,49.3,29.90,ENE,58,3.0,3.0,87,0.00,,,0.20,Wunderground v.1.15,2013-05-30 02:31:00,
2013-05-29 19:37:00,53.0,49.2,29.90,North,4,2.0,4.0,87,0.00,,,0.20,Wunderground v.1.15,2013-05-30 02:37:00,
2013-05-29 19:42:00,52.9,49.4,29.90,NNW,335,2.0,6.0,88,0.00,,,0.20,Wunderground v.1.15,2013-05-30 02:42:00,
2013-05-29 19:47:00,52.9,49.4,29.90,SE,135,2.0,6.0,88,0.00,,,0.20,Wunderground v.1.15,2013-05-30 02:47:00,
2013-05-29 19:53:00,52.7,49.2,29.90,North,7,2.0,6.0,88,0.00,,,0.20,Wunderground v.1.15,2013-05-30 02:53:00,
2013-05-29 19:59:00,52.7,49.2,29.91,NNE,30,3.0,6.0,88,0.00,,,0.20,Wunderground v.1.15,2013-05-30 02:59:00,
2013-05-29 20:05:00,52.7,49.2,29.91,NW,307,2.0,3.0,88,0.00,,,0.20,Wunderground v.1.15,2013-05-30 03:05:00,
2013-05-29 20:10:00,52.6,49.1,29.91,NNE,30,2.0,5.0,88,0.00,,,0.20,Wunderground v.1.15,2013-05-30 03:10:00,
2013-05-29 20:16:00,52.6,49.1,29.91,SW,221,3.0,5.0,88,0.00,,,0.20,Wunderground v.1.15,2013-05-30 03:16:00,
2013-05-29 20:21:00,52.5,49.0,29.91,WNW,288,2.0,2.0,88,0.00,,,0.20,Wunderground v.1.15,2013-05-30 03:21:00,
2013-05-29 20:27:00,52.5,49.0,29.91,NNE,13,1.0,2.0,88,0.00,,,0.20,Wunderground v.1.15,2013-05-30 03:27:00,
2013-05-29 20:32:00,52.5,49.0,29.91,North,9,1.0,3.0,88,0.00,,,0.20,Wunderground v.1.15,2013-05-30 03:32:00,
2013-05-29 20:38:00,52.5,49.0,29.91,NE,39,1.0,3.0,88,0.00,,,0.20,Wunderground v.1.15,2013-05-30 03:38:00,
2013-05-29 20:43:00,52.5,49.4,29.91,WNW,298,1.0,1.0,89,0.00,,,0.20,Wunderground v.1.15,2013-05-30 03:43:00,
2013-05-29 20:49:00,52.4,49.3,29.91,WNW,298,0.0,1.0,89,0.00,,,0.20,Wunderground v.1.15,2013-05-30 03:49:00,
2013-05-29 20:55:00,52.5,49.0,29.91,NE,37,0.0,2.0,88,0.00,,,0.20,Wunderground v.1.15,2013-05-30 03:55:00,
2013-05-29 21:00:00,52.5,49.0,29.92,NNE,19,0.0,0.0,88,0.00,,,0.20,Wunderground v.1.15,2013-05-30 04:00:00,
2013-05-29 21:01:00,52.5,49.0,29.92,NNE,18,0.0,1.0,88,0.00,,,0.20,Wunderground v.1.15,2013-05-30 04:01:00,
2013-05-29 21:03:00,52.5,49.4,29.92,WSW,255,0.0,1.0,89,0.00,,,0.20,Wunderground v.1.15,2013-05-30 04:03:00,
2013-05-29 21:04:00,52.5,49.0,29.92,WSW,255,0.0,1.0,88,0.00,,,0.20,Wunderground v.1.15,2013-05-30 04:04:00,
2013-05-29 21:05:00,52.5,49.0,29.92,NNE,19,0.0,2.0,88,0.00,,,0.20,Wunderground v.1.15,2013-05-30 04:05:00,
2013-05-29 21:10:00,52.5,49.4,29.92,NE,46,0.0,0.0,89,0.00,,,0.20,Wunderground v.1.15,2013-05-30 04:10:00,
2013-05-29 21:16:00,52.5,49.0,29.92,NE,46,0.0,0.0,88,0.00,,,0.20,Wunderground v.1.15,2013-05-30 04:16:00,
2013-05-29 21:21:00,52.5,49.0,29.92,NE,46,0.0,0.0,88,0.00,,,0.20,Wunderground v.1.15,2013-05-30 04:21:00,
2013-05-29 21:23:00,52.5,49.4,29.92,NE,46,0.0,0.0,89,0.00,,,0.20,Wunderground v.1.15,2013-05-30 04:23:00,
2013-05-29 21:29:00,52.4,49.3,29.92,NNW,337,0.0,0.0,89,0.00,,,0.20,Wunderground v.1.15,2013-05-30 04:29:00,
2013-05-29 21:35:00,52.4,49.6,29.92,NNW,337,0.0,0.0,90,0.00,,,0.20,Wunderground v.1.15,2013-05-30 04:35:00,
2013-05-29 21:41:00,52.3,49.5,29.92,WNW,292,0.0,1.0,90,0.00,,,0.20,Wunderground v.1.15,2013-05-30 04:41:00,
2013-05-29 21:46:00,52.2,49.4,29.92,WNW,292,0.0,1.0,90,0.00,,,0.20,Wunderground v.1.15,2013-05-30 04:46:00,
2013-05-29 21:52:00,52.2,49.4,29.93,WNW,292,0.0,0.0,90,0.00,,,0.20,Wunderground v.1.15,2013-05-30 04:52:00,
2013-05-29 21:58:00,52.2,49.7,29.93,WNW,292,0.0,0.0,91,0.00,,,0.20,Wunderground v.1.15,2013-05-30 04:58:00,
2013-05-29 22:04:00,52.1,49.6,29.93,WNW,292,0.0,1.0,91,0.00,,,0.20,Wunderground v.1.15,2013-05-30 05:04:00,
2013-05-29 22:09:00,52.0,49.5,29.93,WNW,292,0.0,1.0,91,0.00,,,0.20,Wunderground v.1.15,2013-05-30 05:09:00,
2013-05-29 22:14:00,52.0,49.2,29.94,WNW,292,0.0,1.0,90,0.00,,,0.20,Wunderground v.1.15,2013-05-30 05:14:00,
2013-05-29 22:20:00,52.2,49.4,29.94,West,275,0.0,0.0,90,0.00,,,0.20,Wunderground v.1.15,2013-05-30 05:20:00,
2013-05-29 22:25:00,52.3,49.5,29.94,West,274,0.0,1.0,90,0.00,,,0.20,Wunderground v.1.15,2013-05-30 05:25:00,
2013-05-29 22:31:00,52.4,49.3,29.94,West,274,0.0,0.0,89,0.00,,,0.20,Wunderground v.1.15,2013-05-30 05:31:00,
2013-05-29 22:37:00,52.5,49.4,29.94,West,259,0.0,3.0,89,0.00,,,0.20,Wunderground v.1.15,2013-05-30 05:37:00,
2013-05-29 22:43:00,52.6,49.1,29.94,SW,221,1.0,5.0,88,0.00,,,0.20,Wunderground v.1.15,2013-05-30 05:43:00,
2013-05-29 22:48:00,52.9,48.8,29.94,SE,127,2.0,8.0,86,0.00,,,0.20,Wunderground v.1.15,2013-05-30 05:48:00,
2013-05-29 22:54:00,53.0,48.6,29.94,West,268,2.0,3.0,85,0.00,,,0.20,Wunderground v.1.15,2013-05-30 05:54:00,
2013-05-29 22:59:00,52.9,48.8,29.94,SW,226,1.0,3.0,86,0.00,,,0.20,Wunderground v.1.15,2013-05-30 05:59:00,
2013-05-29 23:05:00,52.8,48.7,29.95,WNW,286,1.0,2.0,86,0.00,,,0.20,Wunderground v.1.15,2013-05-30 06:05:00,
2013-05-29 23:11:00,52.8,49.0,29.95,SW,219,2.0,2.0,87,0.00,,,0.20,Wunderground v.1.15,2013-05-30 06:11:00,
2013-05-29 23:16:00,52.7,48.9,29.94,SSE,166,2.0,2.0,87,0.00,,,0.20,Wunderground v.1.15,2013-05-30 06:16:00,
2013-05-29 23:22:00,52.6,48.8,29.94,WSW,247,1.0,1.0,87,0.00,,,0.20,Wunderground v.1.15,2013-05-30 06:22:00,
2013-05-29 23:27:00,52.5,48.7,29.95,SW,229,1.0,4.0,87,0.00,,,0.20,Wunderground v.1.15,2013-05-30 06:27:00,
2013-05-29 23:33:00,52.5,49.0,29.95,SW,224,1.0,4.0,88,0.00,,,0.20,Wunderground v.1.15,2013-05-30 06:33:00,
2013-05-29 23:39:00,52.4,48.9,29.95,SW,217,2.0,7.0,88,0.00,,,0.20,Wunderground v.1.15,2013-05-30 06:39:00,
2013-05-29 23:45:00,52.3,48.9,29.95,SW,229,3.0,4.0,88,0.00,,,0.20,Wunderground v.1.15,2013-05-30 06:45:00,
2013-05-29 23:51:00,52.3,48.9,29.95,SSW,213,2.0,2.0,88,0.00,,,0.20,Wunderground v.1.15,2013-05-30 06:51:00,
2013-05-29 23:57:00,52.2,48.8,29.95,WSW,238,1.0,2.0,88,0.00,,,0.20,Wunderground v.1.15,2013-05-30 06:57:00,